STARLINK-1543, 46053

Orbit data source: Space-Track

STARLINK-1543, 46053 is a payload satellite owned by SpaceX/Seattle (US) in LEO that was launched on Fri, 07 Aug 2020 UTC via an FALCON 9 launch vehicle from the Air Force Eastern Test Range (AFETR). Payload-class satellites include a variety of spacecraft equipped with specific instruments for various scientific and technological missions. These include communications satellites like Starlink; space stations such as the ISS; scientific satellites like the Hubble; Earth observation satellites from companies like Planet Labs, Umbra, and HawkEye 360; GPS; miniature CubeSats for education and research; and military/defense satellites.

Loading next visibility...
Identifier
46053, 2020-055AC
Orbit
LEO
Country
Flag of USUS
Related business
Manufacturer
SpaceX/Seattle
Mission
Operational Commercial Communications
Bus & Motor
STARLINK, Unknown motor
Mass
260 kg wet, ~248 kg dry
Launch date (UTC)
2020-08-07 (5 years ago)
Launch vehicle
FALCON 9
Launch site
Air Force Eastern Test Range (AFETR)
Object type
Payload
Rocket body
Debris
Shape & HBR
Box + 1 Pan, 10.1 m
Radar Cross Section
13.562 m², Large (>1 m²)

Expand to show TLE details & history
Last TLE update: 1 day ago

TLE from 1 day ago
0 STARLINK-1543
1 46053U 20055AC  26012.22807638  .00000793  00000-0  72174-4 0  9991
2 46053  53.0559  10.0845 0001431  91.4521 268.6632 15.06385677300527
Epoch: 2026-01-12T05:28Z
TLE epoch observation values (Epoch: 2026-01-12T05:28:25.799Z)
Latitude
-0°
Longitude
176.24922°
Altitude
548.158 km
Speed
7.589 km/s
True Right ascension
00h 40m 20s
True Declination
0° 00' 00"
Sunlit
Object was in daylight at epoch
Visualization orbit readout
Latitude
Unknown
Longitude
Unknown
Altitude
Unknown
Speed
Unknown
Apparent Right ascension
Unknown
Apparent Declination
Unknown
Sunlit
N/A
Visualization observer readout
Local Sidereal Time
05:31:51
Azimuth
Unknown
Elevation
Unknown
Doppler factor
Unknown
Orbital elements
Apogee altitude
548.517 km
Perigee altitude
546.535 km
Semi-major axis
6,925.663 km
Eccentricity
0.00014
Inclination
53.0559°
RAAN
10.0845°
Arg. of periapsis
91.4521°
True anomaly
268.64681°
Mean anomaly
268.6632°
Eccentric anomaly
268.655°
Mean motion
3.76575 °/min
Orbital period
95.6 mins
BSTAR
0.000072174
Loading maneuver chart data...
Computing Atmospheric mass density...

Documentation

Showing up to 5 results
|